Caro, MI

1:47 PM EDT on April 21, 2018 (GMT -0400)
Caro

Weather History for KCFS - June, 2014

Change the Weather History Date:

Tuesday, June 10, 2014

  Actual Average (KMBS) Record (KMBS)
Temperature  
Mean Temperature 65 °F -  
Max Temperature 79 °F 73 °F 93 °F (1999)
Min Temperature 51 °F 53 °F 46 °F (2006)
Growing Degree Days 15 (Base 50)    
Moisture  
Dew Point 48 °F    
Average Humidity 58    
Maximum Humidity 95    
Minimum Humidity 33    
Precipitation  
Precipitation 0.00 in - - ()
Sea Level Pressure  
Sea Level Pressure 29.96 in    
Wind  
Wind Speed 3 mph (ENE)    
Max Wind Speed 10 mph    
Max Gust Speed -    
Visibility 10 miles    
Events      
Averages and records for this station are not official NWS values.
T = Trace of Precipitation, MM = Missing Value Source: NWS Daily Summary

Daily Weather History Graph

Daily Weather History Graph

Search for Another Location

Airport or City:

Astronomy

Jun. 10, 2014 Rise Set
Actual Time 5:52 AM EDT 9:14 PM EDT
Civil Twilight 5:17 AM EDT 9:49 PM EDT
Nautical Twilight 4:31 AM EDT 10:35 PM EDT
Astronomical Twilight 3:33 AM EDT 11:33 PM EDT
Moon 6:34 PM EDT (6/10) 4:02 AM EDT (6/10)
Length of Visible Light 16h 32m
Length of Day
15h 21m
Waxing Gibbous, 92% of the Moon is Illuminated
Jun 10
Waxing Gibbous
Jun 13
Full
Jun 19
Last Quarter
Jun 27
New
Jul 5
First Quarter

Hourly Weather History & Observations

Time (EDT) Temp. Dew Point Humidity Pressure Visibility Wind Dir Wind Speed Gust Speed Precip Events Conditions
12:15 AM 58.6 °F 46.9 °F 65% 29.99 in 10.0 mi Calm Calm - N/A   Clear
12:35 AM 56.7 °F 48.4 °F 74% 29.99 in 10.0 mi Calm Calm - N/A   Clear
12:55 AM 54.5 °F 50.7 °F 87% 30.00 in 10.0 mi NNW 3.5 mph - N/A   Clear
1:15 AM 54.5 °F 50.5 °F 86% 29.99 in 10.0 mi Calm Calm - N/A   Clear
1:35 AM 54.7 °F 50.5 °F 86% 29.98 in 10.0 mi Calm Calm - N/A   Clear
1:55 AM 54.1 °F 50.5 °F 88% 29.97 in 10.0 mi Calm Calm - N/A   Clear
2:15 AM 53.6 °F 50.9 °F 91% 29.97 in 10.0 mi Calm Calm - N/A   Clear
2:34 AM 53.2 °F 50.7 °F 91% 29.97 in 10.0 mi Calm Calm - N/A   Clear
2:55 AM 52.9 °F 50.9 °F 93% 29.97 in 10.0 mi Calm Calm - N/A   Clear
3:15 AM 52.3 °F 50.2 °F 92% 29.97 in 10.0 mi Calm Calm - N/A   Clear
3:34 AM 52.0 °F 50.4 °F 94% 29.97 in 10.0 mi Calm Calm - N/A   Clear
3:55 AM 52.0 °F 50.5 °F 95% 29.97 in 10.0 mi Calm Calm - N/A   Clear
4:15 AM 51.8 °F 50.4 °F 95% 29.97 in 10.0 mi Calm Calm - N/A   Clear
4:34 AM 52.7 °F 51.1 °F 94% 29.97 in 10.0 mi Calm Calm - N/A   Clear
4:55 AM 52.5 °F 50.4 °F 92% 29.97 in 10.0 mi Calm Calm - N/A   Clear
5:15 AM 52.3 °F 50.5 °F 94% 29.97 in 10.0 mi North 3.5 mph - N/A   Clear
5:35 AM 52.9 °F 50.2 °F 91% 29.97 in 10.0 mi North 4.6 mph - N/A   Clear
5:55 AM 54.3 °F 48.9 °F 82% 29.97 in 10.0 mi Calm Calm - N/A   Clear
6:15 AM 54.0 °F 49.1 °F 84% 29.98 in 10.0 mi North 4.6 mph - N/A   Clear
6:35 AM 54.5 °F 49.6 °F 84% 29.98 in 10.0 mi North 3.5 mph - N/A   Clear
6:55 AM 55.2 °F 49.6 °F 81% 29.97 in 10.0 mi Calm Calm - N/A   Clear
7:14 AM 56.5 °F 48.9 °F 76% 29.98 in 10.0 mi NE 3.5 mph - N/A   Clear
7:35 AM 59.2 °F 47.8 °F 66% 29.97 in 10.0 mi NE 5.8 mph - N/A   Clear
7:55 AM 59.4 °F 49.5 °F 70% 29.98 in 10.0 mi ENE 3.5 mph - N/A   Clear
8:14 AM 60.8 °F 49.5 °F 66% 29.99 in 10.0 mi ENE 3.5 mph - N/A   Clear
8:35 AM 62.8 °F 50.5 °F 64% 29.98 in 10.0 mi NE 3.5 mph - N/A   Clear
8:54 AM 64.4 °F 49.6 °F 59% 29.98 in 10.0 mi East 3.5 mph - N/A   Clear
9:15 AM 64.6 °F 51.4 °F 62% 29.99 in 10.0 mi East 3.5 mph - N/A   Clear
9:54 AM 66.4 °F 51.6 °F 59% 29.99 in 7.0 mi East 3.5 mph - N/A   Clear
10:15 AM 67.6 °F 51.8 °F 57% 30.00 in 10.0 mi ENE 3.5 mph - N/A   Clear
10:35 AM 68.5 °F 50.5 °F 53% 29.99 in 10.0 mi Calm Calm - N/A   Clear
11:15 AM 69.8 °F 53.2 °F 56% 29.99 in 10.0 mi ENE 3.5 mph - N/A   Clear
11:35 AM 70.5 °F 51.8 °F 51% 29.99 in 10.0 mi NE 6.9 mph - N/A   Clear
11:54 AM 71.6 °F 52.2 °F 50% 29.99 in 10.0 mi ENE 3.5 mph - N/A   Clear
12:15 PM 72.1 °F 51.4 °F 48% 29.98 in 10.0 mi NE 5.8 mph - N/A   Clear
12:35 PM 72.9 °F 52.0 °F 48% 29.99 in 10.0 mi East 4.6 mph - N/A   Clear
1:15 PM 76.3 °F 51.4 °F 42% 29.98 in 10.0 mi NE 6.9 mph - N/A   Clear
1:35 PM 77.2 °F 50.9 °F 40% 29.98 in 10.0 mi East 10.4 mph - N/A   Clear
1:55 PM 77.5 °F 50.5 °F 39% 29.97 in 10.0 mi NE 4.6 mph - N/A   Clear
2:15 PM 77.4 °F 48.4 °F 36% 29.97 in 10.0 mi ESE 4.6 mph - N/A   Clear
2:35 PM 77.9 °F 50.2 °F 38% 29.97 in 10.0 mi East 5.8 mph - N/A   Clear
3:15 PM 78.1 °F 50.2 °F 38% 29.97 in 10.0 mi ENE 5.8 mph - N/A   Clear
3:34 PM 79.0 °F 50.7 °F 37% 29.97 in 10.0 mi East 6.9 mph - N/A   Clear
3:55 PM 79.0 °F 50.5 °F 37% 29.96 in 10.0 mi NE 6.9 mph - N/A   Clear
4:15 PM 77.4 °F 49.6 °F 38% 29.96 in 10.0 mi ENE 6.9 mph - N/A   Clear
4:34 PM 77.4 °F 48.6 °F 36% 29.96 in 10.0 mi ENE 6.9 mph - N/A   Clear
5:15 PM 77.5 °F 47.3 °F 34% 29.95 in 10.0 mi ENE 6.9 mph - N/A   Clear
5:34 PM 76.8 °F 47.5 °F 35% 29.96 in 10.0 mi ENE 8.1 mph - N/A   Clear
5:55 PM 76.6 °F 46.8 °F 35% 29.95 in 10.0 mi ENE 6.9 mph - N/A   Clear
6:15 PM 76.6 °F 45.7 °F 33% 29.94 in 10.0 mi East 8.1 mph - N/A   Clear
6:35 PM 76.1 °F 46.6 °F 35% 29.93 in 10.0 mi ENE 5.8 mph - N/A   Clear
6:55 PM 75.6 °F 45.0 °F 34% 29.93 in 10.0 mi ENE 5.8 mph - N/A   Clear
7:14 PM 74.8 °F 47.1 °F 37% 29.93 in 10.0 mi East 4.6 mph - N/A   Clear
7:35 PM 73.8 °F 45.7 °F 37% 29.92 in 7.0 mi East 5.8 mph - N/A   Clear
7:55 PM 73.4 °F 43.2 °F 34% 29.93 in 10.0 mi ENE 5.8 mph - N/A   Clear
8:14 PM 72.5 °F 43.5 °F 35% 29.93 in 10.0 mi East 4.6 mph - N/A   Clear
8:35 PM 71.1 °F 45.7 °F 40% 29.93 in 10.0 mi East 4.6 mph - N/A   Clear
8:55 PM 70.3 °F 44.1 °F 39% 29.93 in 10.0 mi East 4.6 mph - N/A   Clear
9:15 PM 70.0 °F 41.0 °F 35% 29.93 in 10.0 mi East 4.6 mph - N/A   Clear
9:35 PM 69.3 °F 39.7 °F 34% 29.93 in 10.0 mi ENE 4.6 mph - N/A   Clear
9:55 PM 68.9 °F 39.6 °F 34% 29.93 in 10.0 mi ENE 5.8 mph - N/A   Clear
10:15 PM 68.0 °F 41.0 °F 37% 29.93 in 10.0 mi ENE 5.8 mph - N/A   Clear
10:35 PM 67.3 °F 42.4 °F 40% 29.94 in 10.0 mi ENE 3.5 mph - N/A   Scattered Clouds
11:15 PM 66.4 °F 42.3 °F 41% 29.92 in 10.0 mi NE 4.6 mph - N/A   Overcast
11:34 PM 65.8 °F 43.0 °F 43% 29.92 in 10.0 mi NE 4.6 mph - N/A   Overcast
11:55 PM 65.7 °F 43.3 °F 44% 29.92 in 10.0 mi ENE 8.1 mph - N/A   Overcast